STARLINK-34527, 64482

Orbit data source: Space-Track

STARLINK-34527, 64482 is a payload satellite owned by SpaceX/Seattle (US) in LEO that was launched on Mon, 23 Jun 2025 UTC via an FALCON 9 launch vehicle from the Air Force Eastern Test Range (AFETR). Payload-class satellites include a variety of spacecraft equipped with specific instruments for various scientific and technological missions. These include communications satellites like Starlink; space stations such as the ISS; scientific satellites like the Hubble; Earth observation satellites from companies like Planet Labs, Umbra, and HawkEye 360; GPS; miniature CubeSats for education and research; and military/defense satellites.

Loading next visibility...
Identifier
64482, 2025-133L
Orbit
LEO
Last TLE update
6 hours ago
Origin
Manufacturer
SpaceX/Seattle
Mission
Operational spacecraft
Bus & Motor
STARLINK V2MO, Unknown motor
Mass
575 kg wet, ~530 kg dry
Launch date (UTC)
2025-06-23 (1 week ago)
Launch vehicle
FALCON 9
Launch site
Air Force Eastern Test Range (AFETR)
Object type
Payload
Rocket body
Debris
Shape & HBR
Unknown
Radar Cross Section
RCS unknown

Expand to show TLE details & history

TLE from 6 hours ago
0 STARLINK-34527
1 64482U 25133L   25182.50002315 -.01088637  00000-0 -47354-2 0  9992
2 64482  53.1560 216.2728 0000986  61.5977 231.0367 15.86663177  2545
Epoch: 2025-07-01T12:00Z
TLE epoch observation values (Epoch: 2025-07-01T12:00:02Z)
Latitude
-47.80411°
Longitude
61.20255°
Altitude
328.409 km
Speed
7.711 km/s
True Right ascension
10h 44m 01s
True Declination
-47° 37' 19"
Sunlit
Object was in daylight at epoch
Visualization orbit readout
Latitude
-45.7054°
Longitude
65.40542°
Altitude
329.265 km
Speed
7.71 km/s
Apparent Right ascension
14h 28m 14s
Apparent Declination
-55° 19' 47"
Sunlit
Object is in daylight
Visualization observer readout
Local Sidereal Time
05:43:42
Azimuth
132.361° SE
Elevation
-54.561°
Doppler factor
1
Orbital elements
Apogee altitude
312.569 km
Perigee altitude
311.249 km
Semi-major axis
6,690.046 km
Eccentricity
0.0001
Inclination
53.156°
RAAN
216.2728°
Arg. of periapsis
61.5977°
True anomaly
Unknown
Mean anomaly
231.0367°
Eccentric anomaly
Unknown
Mean motion
3.96643 °/min
Orbital period
90.76 mins
BSTAR
-0.0047354
Loading maneuver chart data...
Loading SW <> Apogee altitude chart data...
Loading historical data...
Loading historical data...
Loading historical data...
Loading historical data...
Loading historical data...
Loading historical data...
Loading historical data...

STARLINK-34527 Visibility forecast

Observer location: undefined°, undefined°

Span
Click to sort rows by Start time (UTC) header in descending order
Start Az.
Max El. time (UTC)
Max El. Az.
Max El.
End time (UTC)
End Az.
4 mins2025-07-02 05:07:00.319Z234.688° WSW2025-07-02 05:09:00.319Z356.484° N43.995°2025-07-02 05:11:00.319Z46.592° ENE
|